This is the latest recevied weather packets stored in our database for station/object W7TJC. If no packets are shown the sender has not sent any weather packets the latest 1 day(s).
| Time | Temp. | Humidity | Pressure | Rain* | Wind** | Luminosity | Snow |
|---|---|---|---|---|---|---|---|
| 1777999786 | 12.78° C | 83% | 1017.1 hPa | 0 mm | 0 m/s | 33 W/m² | - |
| 1777999482 | 12.78° C | 83% | 1017.2 hPa | 0 mm | 0 m/s | 33 W/m² | - |
| 1777999180 | 12.78° C | 83% | 1017.3 hPa | 0 mm | 0 m/s | 32 W/m² | - |
| 1777998879 | 12.78° C | 83% | 1017.1 hPa | 0 mm | 0.45 m/s, 149° | 31 W/m² | - |
| 1777998578 | 12.78° C | 83% | 1017.4 hPa | 0 mm | 0.45 m/s, 205° | 32 W/m² | - |
| 1777998273 | 12.78° C | 83% | 1017.3 hPa | 0 mm | 0.45 m/s, 160° | 35 W/m² | - |
| 1777997970 | 12.78° C | 82% | 1017.2 hPa | 0 mm | 0.89 m/s, 210° | 34 W/m² | - |
| 1777997666 | 12.78° C | 83% | 1017.1 hPa | 0 mm | 0 m/s | 36 W/m² | - |
| 1777997364 | 12.78° C | 83% | 1017.1 hPa | 0 mm | 0.45 m/s, 201° | 38 W/m² | - |
| 1777997062 | 12.78° C | 83% | 1017.1 hPa | 0 mm | 0 m/s | 34 W/m² | - |
| 1777996758 | 12.78° C | 83% | 1017.3 hPa | 0 mm | 0 m/s | 30 W/m² | - |
| 1777996455 | 12.78° C | 83% | 1017 hPa | 0 mm | 0 m/s | 44 W/m² | - |
| 1777996152 | 12.78° C | 83% | 1017 hPa | 0 mm | 0 m/s | 33 W/m² | - |
| 1777995848 | 12.78° C | 83% | 1016.9 hPa | 0 mm | 0 m/s | 41 W/m² | - |
| 1777995544 | 12.78° C | 83% | 1016.9 hPa | 0 mm | 0.45 m/s, 102° | 38 W/m² | - |
| 1777995241 | 12.78° C | 84% | 1016.8 hPa | 0 mm | 0 m/s | 26 W/m² | - |
| 1777994932 | 12.22° C | 83% | 1016.9 hPa | 0 mm | 0.89 m/s, 203° | 25 W/m² | - |
| 1777994629 | 12.22° C | 84% | 1016.8 hPa | 0 mm | 0 m/s | 25 W/m² | - |
| 1777994329 | 12.22° C | 85% | 1016.9 hPa | 0 mm | 0 m/s | 23 W/m² | - |
| 1777994026 | 12.22° C | 84% | 1016.9 hPa | 0 mm | 0 m/s | 19 W/m² | - |
| 1777993724 | 12.22° C | 85% | 1016.7 hPa | 0 mm | 0 m/s | 20 W/m² | - |
| 1777993421 | 12.22° C | 85% | 1016.7 hPa | 0 mm | 0 m/s | 19 W/m² | - |
| 1777993120 | 12.22° C | 85% | 1016.5 hPa | 0 mm | 0 m/s | 19 W/m² | - |
| 1777992819 | 12.22° C | 86% | 1016.5 hPa | 0 mm | 0 m/s | 18 W/m² | - |
| 1777992516 | 12.22° C | 86% | 1016.5 hPa | 0 mm | 0.45 m/s, 203° | 17 W/m² | - |
* Rain latest hour (hover to see other rain measurements)
** Current wind speed in m/s (hover to see current wind gust speed)